Regional Weather Roundup
Issued by NWS

Home | Current Version | Previous Version | Graphics & Text | Print | Product List | Glossary On
Versions: 1 2 3 4 5 6 7 8 9 10 11 12 13 14 15 16 17 18 19 20 21 22 23 24 25 26 27 28 29 30 31 32 33 34 35 36 37 38 39 40 41 42 43 44 45 46 47 48 49 50
000
ASUS43 KMKX 300221
RWRWI

WISCONSIN REGIONAL WEATHER ROUNDUP
NATIONAL WEATHER SERVICE MILWAUKEE/SULLIVAN WI
900 PM CDT MON SEP 29 2014

NOTE: "FAIR" INDICATES FEW OR NO CLOUDS BELOW 12,000 FEET WITH NO
SIGNIFICANT WEATHER AND/OR OBSTRUCTIONS TO VISIBILITY.

WIZ001-002-006>008-014>016-023>028-300300-
NORTHWEST WISCONSIN

CITY           SKY/WX    TMP DP  RH WIND       PRES   REMARKS
SUPERIOR ARPT  CLOUDY    45  39  79 SE7       30.21R
ASHLAND        CLOUDY    44  40  85 E8        30.21S
HAYWARD        CLOUDY    42  40  92 NE7       30.17F FOG
SIREN          CLOUDY    44  38  79 E12G17    30.16S
CUMBERLAND     CLOUDY    43  37  81 NE8       30.15R
RICE LAKE      CLOUDY    44  39  83 NE8       30.16S
CHETEK         CLEAR     44  39  83 N6        30.15S
LADYSMITH      CLOUDY    44  38  81 NE7       30.17S
EAU CLAIRE     CLEAR     47  39  74 NE12      30.11S
MENOMONIE      CLEAR     49  40  72 N8        30.13R
NEW RICHMOND   CLEAR     46  40  82 NE8       30.14R
OSCEOLA        CLEAR     45  42  89 NE6       30.16S
$$

WIZ003>005-009-010-017-018-300300-
NORTH CENTRAL WISCONSIN

CITY           SKY/WX    TMP DP  RH WIND       PRES   REMARKS
MANITOWISH WTR CLOUDY    37  37 100 NE10      30.16S WCI  30
ARBOR VITAE    CLOUDY    39  36  88 N6        30.15S WCI  35
WOODRUFF       CLOUDY    39  36  88 N6        30.15S WCI  35
RHINELANDER    CLOUDY    39  36  89 VRB7G16   30.14S WCI  34
EAGLE RIVER    LGT SNOW  37  37  99 N8        30.14S WCI  31
LAND O LAKES   CLOUDY    38  37  99 N9        30.16S FOG     WCI  31
PHILLIPS       CLOUDY    39  37  90 NE8       30.15S WCI  34
TOMAHAWK       CLOUDY    39  36  87 N5        30.15S
MEDFORD        CLOUDY    42  38  84 NE10      30.12S
MERRILL        CLOUDY    42  38  83 NE12      30.12S
$$

WIZ029-030-035-036-043>047-300300-
CENTRAL WISCONSIN

CITY           SKY/WX    TMP DP  RH WIND       PRES   REMARKS
WAUSAU         CLOUDY    45  38  76 N8        30.11R
MOSINEE        PTCLDY    43  39  87 NE12      30.12R
MARSHFIELD     CLEAR     46  40  79 NE9       30.10R
STEVENS POINT  CLOUDY    46  40  78 NE12      30.11R
WAUPACA        CLOUDY    51  44  75 N10       30.10R
WAUTOMA        NOT AVBL
WISC RAPIDS    PTCLDY    49  42  77 NE7       30.11R
CAMP DOUGLAS   CLEAR     43  43 100 N5        30.09R
$$

WIZ011>013-019>022-031-037>040-048>050-300300-
NORTHEAST WISCONSIN

CITY           SKY/WX    TMP DP  RH WIND       PRES   REMARKS
ANTIGO         CLOUDY    41  37  88 N10       30.12R
SHAWANO        CLOUDY    48  40  74 NE14      30.12R
OCONTO         CLOUDY    46  40  79 N9        30.11R
STURGEON BAY   NOT AVBL
GREEN BAY      CLOUDY    48  41  76 N15       30.09S
MANITOWOC      NOT AVBL
APPLETON       CLOUDY    48  41  76 NE10G17   30.09S
CLINTONVILLE   CLOUDY    46  37  71 N9        30.11R
OSHKOSH        CLOUDY    51  45  79 N14       30.08R
$$

WIZ032>034-041-042-053>061-300300-
SOUTHWEST WISCONSIN

CITY           SKY/WX    TMP DP  RH WIND       PRES   REMARKS
LA CROSSE      CLEAR     54  49  83 N6        30.07S
SPARTA         CLEAR     45  45  97 CALM      30.10R
VIROQUA        PTCLDY    51  48  89 NE7       30.07S
BOSCOBEL       CLOUDY    57  49  74 NE8       30.06S
PRAIRIE DU CHI MOCLDY    56  48  75 NE5       30.05S
PLATTEVILLE    CLOUDY    56  53  90 NE10G18   30.04S
$$

WIZ056-057-062-063-064-067-068-300300-
SOUTH CENTRAL WISCONSIN

CITY           SKY/WX    TMP DP  RH WIND       PRES   REMARKS
REEDSBURG      CLOUDY    52  49  89 NE7       30.07R
BARABOO/DELLS  CLOUDY    51  48  90 NE8       30.07S
LONE ROCK      CLOUDY    59  50  72 NE9       30.06S
MINERAL POINT  CLOUDY    54  52  94 NE9       30.05R
MADISON        CLOUDY    52  49  89 NE12      30.06S
MIDDLETON      CLOUDY    53  51  94 NE13      30.06S
WATERTOWN      CLOUDY    50  49  98 N8        30.06R
MONROE         CLOUDY    52  50  93 NE14G21   30.03R
JANESVILLE     CLOUDY    55  48  76 N13       30.03R
$$

WIZ051-052-058>065-066-070>072-300300-
SOUTHEAST WISCONSIN

CITY           SKY/WX    TMP DP  RH WIND       PRES   REMARKS
MILWAUKEE      CLOUDY    51  48  89 N12G22    30.05R
WAUKESHA       CLOUDY    48  48 100 NE7       30.06R
MILWAUKEE/TIMM RAIN      52  46  82 N12G21    30.06
RACINE         CLOUDY    53  49  86 N20       30.05R
BURLINGTON     CLOUDY    49  47  93 NE7       30.04R
KENOSHA        LGT RAIN  52  50  93 N12G20    30.03S
FOND DU LAC    CLOUDY    50  45  83 N13G23    30.08S
SHEBOYGAN      NOT AVBL
WEST BEND      CLOUDY    48  45  87 NE9       30.06R
JUNEAU         LGT RAIN  50  49  96 N9        30.07S
$$

LSZ147-162-300300-
LAKE SUPERIOR

STATION/POSITION TIME  TEMP    WIND        PRES    WAVE
                       AIR SEA DIR/SP/G            HT/PER
                 (UTC) (F)     (DEG/KT/KT) (MB)    (FT/S)
W MID LAKE BUOY  0150   45 49   50/ 12/ 16 1023.7R   5/ 7
DEVILS ISLAND    0200   46      60/ 15/ 18 1023.8S
SAXON HARBOR     0100   45      80/  6/  9 1022.7S
$$

LMZ867-665-643>646-300300-
LAKE MICHIGAN

STATION/POSITION TIME  TEMP    WIND        PRES    WAVE
                       AIR SEA DIR/SP/G            HT/PER
                 (UTC) (F)     (DEG/KT/KT) (MB)    (FT/S)
CHAMBERS ISLAND  0100   47     340/ 19/ 24 1019.3R
S GREEN BAY BUOY 0200   48                 1020.3R
N MID LAKE BUOY  0150   47 58  360/ 25/ 29 1017.3F   5/ 6
NORTHPORT PIER   0100   47     360/ 20/ 24 1019.0R
KEWAUNEE LAKESHO 0200   47     360/ 11/ 16 1017.8R
SHEBOYGAN LAKESH 0200   50 55   10/ 22/ 26 1018.4R
PORT WASHINGTON  0100           20/  5/  8 1018.3
ATWATER BUOY     0200   54      20/ 19/ 25 1018.3R
MILWAUKEE LAKESH 0200          360/ 14/ 20   N/A
S MID LAKE BUOY  0150   56 63  350/ 25/ 29 1015.4R   8/ 7
KENOSHA   LAKESH 0200          360/ 20/ 27 1016.6R
$$

TC  - TEMPERATURE IN CELSIUS
VSB - VISIBILITY IN STATUTE MILES
WCI - WIND CHILL INDEX
HX  - HEAT INDEX




USA.gov is the U.S. government's official web portal to all federal, state and local government web resources and services.